Big Delta, AK

1:47 AM AKDT on June 25, 2017 (GMT -0800)
Allen Army Air Field

Weather History for PABI - September, 2012

Change the Weather History Date:

Tuesday, September 4, 2012

  Actual Average Record
Temperature  
Mean Temperature 52 °F -  
Max Temperature 60 °F 55 °F 69 °F (2016)
Min Temperature 43 °F 37 °F 27 °F (2014)
Degree Days  
Heating Degree Days 14    
Growing Degree Days 2 (Base 50)    
Moisture  
Dew Point 35 °F    
Average Humidity 50    
Maximum Humidity 82    
Minimum Humidity 25    
Precipitation  
Precipitation 0.00 in - - ()
Sea Level Pressure  
Sea Level Pressure 29.70 in    
Wind  
Wind Speed 16 mph (South)    
Max Wind Speed 47 mph    
Max Gust Speed 72 mph    
Visibility 10 miles    
Events      
Averages and records for this station are not official NWS values.
T = Trace of Precipitation, MM = Missing Value Source: NWS Daily Summary

Daily Weather History Graph

Daily Weather History Graph

Search for Another Location

Airport or City:

Trip Planner

Search our weather history database for the weather conditions in past years. The results will help you decide how hot, cold, wet, or windy it might be!

Date:

Astronomy

Sep. 04, 2012 Rise Set
Actual Time 6:36 AM AKDT 8:44 PM AKDT
Civil Twilight 5:44 AM AKDT 9:36 PM AKDT
Nautical Twilight 4:35 AM AKDT 10:44 PM AKDT
Astronomical Twilight 2:47 AM AKDT 12:26 AM AKDT
Moon 8:41 PM AKDT (9/4) 12:49 PM AKDT (9/4)
Length of Visible Light 15h 51m
Length of Day
14h 08m
Waning Gibbous, 82% of the Moon is Illuminated
Sep 4
Waning Gibbous
Sep 8
Last Quarter
Sep 15
New
Sep 22
First Quarter
Sep 29
Full

Hourly Weather History & Observations

Time (AKDT) Temp. Windchill Dew Point Humidity Pressure Visibility Wind Dir Wind Speed Gust Speed Precip Events Conditions
12:53 AM 54.0 °F - 39.9 °F 59% 29.64 in 10.0 mi WSW 4.6 mph - N/A   Mostly Cloudy
1:53 AM 54.0 °F - 39.0 °F 57% 29.67 in 10.0 mi SW 4.6 mph - 0.00 in   Overcast
2:53 AM 52.0 °F - 39.0 °F 61% 29.70 in 10.0 mi SSW 6.9 mph - N/A   Overcast
3:53 AM 50.0 °F - 42.1 °F 74% 29.73 in 10.0 mi SSW 4.6 mph - 0.00 in   Partly Cloudy
4:53 AM 50.0 °F - 37.0 °F 61% 29.77 in 10.0 mi WSW 10.4 mph - N/A   Overcast
5:53 AM 46.0 °F 41.0 °F 37.9 °F 73% 29.81 in 10.0 mi WNW 10.4 mph - N/A   Scattered Clouds
6:53 AM 43.0 °F 41.3 °F 37.9 °F 82% 29.83 in 10.0 mi WSW 3.5 mph - N/A   Scattered Clouds
7:53 AM 46.9 °F - 41.0 °F 80% 29.85 in 10.0 mi Calm Calm - N/A   Scattered Clouds
8:53 AM 52.0 °F - 39.9 °F 63% 29.84 in 10.0 mi East 3.5 mph - N/A   Scattered Clouds
9:53 AM 53.1 °F - 42.1 °F 66% 29.84 in 10.0 mi ESE 12.7 mph - N/A   Scattered Clouds
10:53 AM 55.9 °F - 39.0 °F 53% 29.83 in 10.0 mi East 9.2 mph - N/A   Mostly Cloudy
11:53 AM 57.9 °F - 32.0 °F 37% 29.83 in 10.0 mi SSE 17.3 mph 31.1 mph N/A   Mostly Cloudy
12:53 PM 59.0 °F - 30.9 °F 35% 29.79 in 10.0 mi South 24.2 mph 41.4 mph N/A   Mostly Cloudy
1:53 PM 57.9 °F - 32.0 °F 37% 29.77 in 10.0 mi South 33.4 mph 46.0 mph N/A   Mostly Cloudy
2:53 PM 57.0 °F - 30.9 °F 37% 29.75 in 10.0 mi South 28.8 mph 41.4 mph N/A   Mostly Cloudy
3:53 PM 57.0 °F - 30.9 °F 37% 29.72 in 10.0 mi South 32.2 mph 47.2 mph N/A   Overcast
4:53 PM 55.9 °F - 32.0 °F 40% 29.69 in 10.0 mi South 39.1 mph 56.4 mph N/A   Overcast
5:53 PM 55.0 °F - 30.9 °F 40% 29.68 in 10.0 mi South 26.5 mph 42.6 mph N/A   Overcast
6:53 PM 55.0 °F - 28.9 °F 37% 29.64 in 10.0 mi SSE 39.1 mph 58.7 mph N/A   Overcast
7:53 PM 55.0 °F - 30.0 °F 38% 29.60 in 10.0 mi South 40.3 mph 59.8 mph N/A   Overcast
8:53 PM 55.0 °F - 30.0 °F 38% 29.57 in 10.0 mi South 40.3 mph 58.7 mph N/A   Overcast
9:46 PM 53.6 °F - 32.0 °F 44% 29.54 in 9.0 mi South 40.3 mph 72.5 mph N/A   Partly Cloudy
9:53 PM 54.0 °F - 30.9 °F 41% 29.55 in 10.0 mi South 43.7 mph 66.7 mph N/A   Clear
10:12 PM 53.6 °F - 32.0 °F 44% 29.53 in 5.0 mi South 46.0 mph 63.3 mph N/A   Haze
10:53 PM 54.0 °F - 32.0 °F 43% 29.52 in 10.0 mi SSW 47.2 mph 67.9 mph N/A   Scattered Clouds
11:53 PM 53.1 °F - 33.1 °F 47% 29.58 in 10.0 mi South 33.4 mph 55.2 mph N/A   Mostly Cloudy